Location: Krakow
(50.0830°N, 19.9170°E)
Time: 17:05:06
(UTC+02:00)

Courier 1B - Pass Details

Date: 23 March 2026
Orbit: 962 x 1209 km, 28.3° (Epoch: 19 April)

Event Time Altitude Azimuth Distance (km) Brightness Sun altitude
Rises 07:23:31 0° 227° (SW) 4,086 10.5 16.0°
Reaches altitude 10° 07:28:24 10° 201° (SSW) 3,090 10.2 16.8°
Maximum altitude 07:31:25 13° 177° (S) 2,863 10.3 17.2°
Drops below altitude 10° 07:34:22 10° 154° (SSE) 3,032 10.9 17.7°
Sets 07:39:04 0° 127° (SE) 3,935 12.1 18.4°
